Regional Weather Roundup
Issued by NWS Northern Indiana

Home | Current Version | Previous Version | Graphics & Text | Print | Product List | Glossary On
Versions: 1 2 3 4 5 6 7 8 9 10 11 12 13 14 15 16 17 18 19 20 21 22 23 24 25 26 27 28 29 30 31 32 33 34 35 36 37 38 39 40 41 42 43 44 45 46 47 48 49 50
201
ASUS43 KIWX 141300
RWRIWX

KIWX WEATHER ROUNDUP
NATIONAL WEATHER SERVICE NORTHERN INDIANA
800 AM EST SUN FEB 14 2016

NOTE: "FAIR" INDICATES FEW OR NO CLOUDS BELOW 12,000 FEET WITH NO
SIGNIFICANT WEATHER AND/OR OBSTRUCTIONS TO VISIBILITY.

* THESE STATIONS ARE NOT UNDER NWS QUALITY CONTROL. THEY ALSO MAY NOT
  REPORT WEATHER SUCH AS PRECIPITATION OR FOG.

INZ001>027-141400-
NORTHERN INDIANA

CITY           SKY/WX    TMP DP  RH WIND       PRES   REMARKS
GARY*          MOCLDY    16   1  53 SE10      30.38F WCI   3
SOUTH BEND     PTCLDY     2  -1  88 SE6       30.41F WCI  -9
ELKHART*       CLOUDY     7   1  78 MISG      30.42
GOSHEN         PTCLDY     4  -1  80 SE6       30.41F WCI  -7
ANGOLA*        CLEAR      0  -2  92 CALM      30.41R
FORT WAYNE     CLOUDY     6   0  76 SE6       30.44F WCI  -4
PERU/GRISSOM   CLOUDY    10   3  73 SE10      30.39F WCI  -3

$$
INZ028>050-141400-
CENTRAL INDIANA

CITY           SKY/WX    TMP DP  RH WIND       PRES   REMARKS
LAFAYETTE      CLOUDY    14   2  58 SE12      30.39F WCI   0
KOKOMO*        CLOUDY    10   1  67 SE10      30.40F WCI  -3
MUNCIE*        PTCLDY    11   2  67 SE5       30.41F WCI   3
INDIANAPOLIS   CLOUDY    14   6  70 SE14      30.38F WCI  -1

$$
MIZ043>046-050>051-056>058-064>065-071>073-077>080-141400-
SOUTHWEST LOWER MICHIGAN

CITY           SKY/WX    TMP DP  RH WIND       PRES   REMARKS
BATTLE CREEK   CLOUDY    -1  -7  75 CALM      30.41S
BENTON HARBOR  CLOUDY     7   3  84 SE6       30.41F WCI  -3
COLDWATER*     CLOUDY    -2  -6  82 CALM      30.41S
HILLSDALE*     CLOUDY    -2  -6  81 CALM      30.39R
HOLLAND        CLOUDY     5  -4  66 E7        30.42S WCI  -7
GRAND RAPIDS   CLOUDY     2  -3  80 CALM      30.43R
KALAMAZOO      CLOUDY     0  -6  76 CALM      30.41F
STURGIS*       CLOUDY     2  -2  83 SE3       30.40S
THREE RIVERS*  FAIR       4   1  86 SE3       30.42F

$$
OHZ001>008-015>018-024>025-141400-
NORTHWEST OHIO

CITY           SKY/WX    TMP DP  RH WIND       PRES   REMARKS
DEFIANCE       CLOUDY     6   1  80 CALM      30.46R
FINDLAY        CLOUDY     2  -2  83 SE3       30.44S
TOLEDO EXPRESS CLOUDY     1  -3  83 CALM      30.45S
TOLEDO METCALF CLOUDY     3  -3  76 SE5       30.47S WCI  -6
LIMA           PTCLDY     2  -1  88 S7        30.43S WCI -11

$$
AND FOR LAKE MICHIGAN COASTAL AND OPEN LAKE BUOY OBSERVATIONS

STATION/POSITION TEMP    WIND        PRES    VSBY  WAVE
                 AIR SEA DIR/SP/G                  HT/PER
                 (F)     (DEG/KT/KT) (MB)    (MI)  (FT/S)
CALUMET HARBOR    13     150/ 12/ 17 1028.2F
MICHIGAN CITY      9     110/  5/  7   N/A
SAINT JOSEPH       9      CALM  /  3 1030.5S

$$
&&




USA.gov is the U.S. government's official web portal to all federal, state and local government web resources and services.